Regional Weather Roundup
Issued by NWS

Home | Current Version | Previous Version | Text Only | Print | Product List | Glossary On
Versions: 1 2 3 4 5 6 7 8 9 10 11 12 13 14 15 16 17 18 19 20 21 22 23 24 25 26 27 28 29 30 31 32 33 34 35 36 37 38 39 40 41 42 43 44 45 46 47 48 49 50
000
ASHW40 PHFO 110643
RWRHI

WEATHER ROUNDUP FOR HAWAII
NATIONAL WEATHER SERVICE HONOLULU HI
800 PM HST SAT DEC 10 2016

THIS IS AN AUTOMATED REPORT THAT HAS NOT BEEN QUALITY CONTROLLED.

NOTE..."FAIR" INDICATES FEW OR NO CLOUDS BELOW 12,000 FEET WITH NO
SIGNIFICANT WEATHER AND/OR OBSTRUCTIONS TO VISIBILITY.

* - THESE SITES REPORT LIMITED FIELDS

HIZ001>004-110700-
KAUAI-NIIHAU-

CITY           SKY/WX    TMP DP  RH WIND       PRES   REMARKS
LIHUE APT      MOCLDY    71  68  90 W8        29.97R
PORT ALLEN*      N/A     73 N/A N/A N6          N/A
POIPU*           N/A     72 N/A N/A N2          N/A
PRINCEVILLE*   NOT AVBL
KOKOLE POINT*  NOT AVBL
MOLOAA DAIRY*    N/A     72  66  83 CALM        N/A
WAIMEA HTS*      N/A     73  66  78 N2          N/A
PUU OPAE*      NOT AVBL
PUU LUA*       NOT AVBL
MAKAHA RIDGE*    N/A     64  63  94 E3          N/A
$$

HIZ005>011-110700-
OAHU-

CITY           SKY/WX    TMP DP  RH WIND       PRES   REMARKS
HONOLULU       CLOUDY    73  68  84 SE6       29.96R
KALAELOA       PTCLDY    73  68  83 SE6       29.98R
KANEOHE MCB    NOT AVBL
WHEELER FIELD  FAIR      70  70 100 CALM      30.00R
BELLOWS*         N/A    N/A N/A N/A SW2         N/A
KAHUKU*          N/A    N/A N/A N/A W1          N/A
WHEELER*         N/A    N/A N/A N/A S5          N/A
WAIANAE HARBOR   N/A    N/A N/A N/A S12         N/A
DILLINGHAM*      N/A     84  81  89 MISG        N/A  HX  98
KAHUKU TRN*      N/A     81  77  89 NE3         N/A
KAWAILOA*        N/A     68  64  88 S2          N/A
KII*             N/A     72  72 100 W3          N/A
MAKUA RANGE*     N/A     82  79  89 N3          N/A  HX  93
OAHU FOREST NW NOT AVBL
SCHOFIELD BRK*   N/A     68  66  94 MISG        N/A
SCHOFIELD S*   NOT AVBL
WAIANAE VLY*   NOT AVBL
KUAOKALA*      NOT AVBL
HONOULIUULI*   NOT AVBL
MOKUOLOE IS*   NOT AVBL
PALEHUA*       NOT AVBL
WAIAWA PHB*    NOT AVBL
$$

HIZ012>013-110700-
MOLOKAI-

CITY           SKY/WX    TMP DP  RH WIND       PRES   REMARKS
MOLOKAI AIRPT  CLOUDY    71  67  87 E8        29.97F
KALAUPAPA      NOT AVBL
MAKAPULAPAI*     N/A     72  68  88 SE7         N/A
MOLOKAI 1*     NOT AVBL
PUU ALII*        N/A     58  58 100 E1          N/A
$$

HIZ016-110700-
KAHOOLAWE-

CITY           SKY/WX    TMP DP  RH WIND       PRES   REMARKS
KAHOOLAWE*     NOT AVBL
HAKIOAWA*        N/A     67  66  97 MISG      30.42
HONOKANAIA*      N/A     72  69  92 E3        29.91S
KANELOA*         N/A     70  68  94 S2        30.03R
KEALIALALO*    NOT AVBL
LUA MAKIKA*    NOT AVBL
$$

HIZ014>015-110700-
LANAI-

CITY           SKY/WX    TMP DP  RH WIND       PRES   REMARKS
LANAI CITY     LGT RAIN  66  66 100 S12       30.06R
LANAI 1*       NOT AVBL
$$

HIZ017>028-110700-
MAUI-

CITY           SKY/WX    TMP DP  RH WIND       PRES   REMARKS
KAHULUI        LGT RAIN  72  70  94 S5        30.00R
KAPALUA-W MAUI NOT AVBL
HANA AIRPORT     N/A     68  68 100 CALM      30.03R
HANA*            N/A     70 N/A N/A S2          N/A
HALEAKALA SUMM   N/A     43  43 100 S5G18       N/A
MAALAEA BAY*     N/A     72 N/A N/A N1G7        N/A
HALEAKALA*     NOT AVBL
KAUPO GAP*       N/A     73  73 100 E2G10       N/A
KULA 1*          N/A     52  51  97 E1G8        N/A
$$

HIZ023>026-110700-
BIG ISLAND OF HAWAII COAST AND LOWER SLOPES-

CITY           SKY/WX    TMP DP  RH WIND       PRES   REMARKS
KAILUA KONA    LGT RAIN  73  72  96 N5        29.97R
HILO           LGT RAIN  72  70  93 CALM      30.00R
HONOKAA*         N/A     68 N/A N/A VRB1        N/A
KAWAIHAE MWT*    N/A     73 N/A N/A SE3         N/A
KAWAIHAE*        N/A     73 N/A N/A N3        29.99R
SOUTH POINT*     N/A     70 N/A N/A N9          N/A
UPOLU AIRPORT* NOT AVBL
KAMUELA*       CLOUDY    64  63  94 NE6       30.10R
HAKALAU*         N/A     53  52  97 S3          N/A
KALOKO-HONOKO*   N/A     72  72 100 NE2       29.98R
PALI 2*          N/A     64  63  94 S5          N/A
KEALAKOMO*       N/A     73  70  88 N2          N/A
KAUPULEHU*     NOT AVBL
KAPAPALA*      NOT AVBL
LOWER KAHUKU*    N/A    N/A N/A N/A N3          N/A
PUHE CS*         N/A     72  68  88 E2          N/A
PUHO CS*         N/A     70  67  90 E2          N/A
PTA KEAMUKU*     N/A     63  59  88 CALM        N/A
WAIKOLOA*        N/A     70  68  94 NE3         N/A
$$

HIZ027>028-110700-
BIG ISLAND OF HAWAII INTERIOR AND SUMMMITS-

CITY           SKY/WX    TMP DP  RH WIND       PRES   REMARKS
BRADSHAW FIELD LGT RAIN  55  54  94 CALM      30.32S FOG
MK VISITOR CEN   N/A     46  43  87 NW8         N/A
MAUNA KEA*       N/A     32  30  93 SW18        N/A  WCI  20
MAUNA LOA*       N/A     41  36  81 MISG        N/A
MAUNA LOA 1*   NOT AVBL
PTA KIPUKA*      N/A     63  63 100 SE2         N/A
PTA RANGE 17*    N/A     57  55  94 SW1         N/A
PTA WEST*        N/A    N/A N/A N/A SE3         N/A
NENE CABIN*      N/A     52  50  93 N3          N/A
AHUMOA*          N/A     53  52  97 SE6         N/A
PTA PORTABLE*  NOT AVBL
PUU MALI*        N/A     54  52  94 S5          N/A
$$

HIC003-110700-
NORTHWEST ISLANDS-

CITY           SKY/WX    TMP DP  RH WIND       PRES   REMARKS
MIDWAY ISLAND  CLEAR     70  63  78 NE5       30.02R
MIDWAY NOS*      N/A     72 N/A N/A MISG      29.99S
FRENCH FRIGATE NOT AVBL
$$

PHZ110>124-180-110700-
BUOY REPORTS

STATION/POSITION TIME  TEMP    WIND        PRES    WAVE   SWELL
                       AIR SEA DIR/SP/G            HT/PER HT/DIR
                 (UTC) (F)     (DEG/KT/KT) (MB)    (FT/S) (FT/D)
BUOY 51001       0620   76 78  220/ 12/ 16 1013.3
BUOY 51101       0550   76 78  230/ 10/ 12 1013.8R   8/12   8/ 20
BUOY 51100       NOT AVBL
BUOY 51002       0620   78 79  100/  4/  6 1014.4
BUOY 51003       0550   77 80   50/  8/ 10 1013.6R   6/12   5/340
BUOY 51004       0550   77 79  120/ 10/ 14 1015.3R   5/ 7   5/110
BARBERS PT BUOY  NOT AVBL
WAIMEA BAY BUOY  0602      77                N/A     4/12   3/360
KAILUA BAY BUOY  0604      78                N/A     5/11   3/360
LANAI BUOY       0615      79                N/A     2/12   2/290
BARBERS PT 2     0609      79                N/A     3/ 9   2/230
PAUWELA MAUI     0609      78                N/A     4/ 8   2/ 10
HILO             0612      78                N/A     5/ 8   2
KANEOHE BAY BUOY 0606      77                N/A     5/11   3/360
HANALEI KAUAI    0622      78                N/A     5/12   3/ 10
KAHULUI HARBOR   0618      78  200/  2/  4 1015.6
HONOLULU HARBOR  0618      78   CALM  /  2 1015.9
KILO NALU        NOT AVBL
HILO HARBOR      0618      76  220/  3/  3 1016.0
MOKUOLOE         0536   72     190/  1/  3   N/A
NAWILIWILI       0618      78  280/  5/  5 1015.0
WHOTS BUOY       NOT AVBL
BUOY 51028       NOT AVBL
$$

......................KEY........................................
  SKY/WX - SKY CONDITIONS/PRESENT WEATHER
  TMP    - TEMPERATURE IN FAHRENHEIT
  DWPT   - DEWPOINT IN FAHRENHEIT
  RH     - RELATIVE HUMIDITY IN PERCENT
  WIND   - DIRECTION AND SPEED /MPH FOR ISLANDS...KTS FOR BUOYS/
  PRES   - MEAN SEA LEVEL PRESSURE IN INCHES OF HG
  VSB    - VISIBILITY IN MILES
  HX     - HEAT INDEX
  WCI    - WIND CHILL INDEX
  VRB    - VARIABLE WIND DIRECTION
  N/A    - NOT AVAILABLE




USA.gov is the U.S. government's official web portal to all federal, state and local government web resources and services.